星链-11193 (STARLINK-11193)

导读 | 星芒AI

STARLINK-11193 是 SpaceX Starlink 项目中的一颗低轨道通信卫星,属于第 56 批 Starlink 卫星发射任务。该卫星旨在为全球用户提供高速互联网服务,尤其关注偏远和网络覆盖不足的地区。它运行在约 550 公里的轨道高度,采用先进的推进系统和激光通信技术,以提高网络效率和减少延迟。作为 Starlink 卫星群的一部分,STARLINK-11193 有助于构建一个全球性的宽带通信网络。

基本信息
目录编号:
60195
目录名称:
STARLINK-11193
国际标识:
2024-124N
轨道中心:
EARTH
卫星名称:
星链-11193 (STARLINK-11193)
卫星全名:
星链-11193 (STARLINK-11193)
卫星状态:
在轨 (已飞行483 天)
发射日期:
2024-07-03 UTC
国别 :
美国 (US)
星等 :
--
轨道信息
数据来源 国际轨道数据
星历时间: 2025-10-27T12:05:00+0800
2天前
查看轨道信息
半长轴: 6737.84km
偏心率: 0.0001145
轨道倾角: 53.157°
近地点辐角 87.669°
升交点赤经 99.434°
平近点角 272.446°
近地点: 358.933km
远地点: 360.477km
周期: 91.736分钟
每日圈数: 15.697186
详细信息
卫星平台:
Starlink v2.0 mini
运营商:
太空探索技术公司
运营商所在国:
美国
制造商(研发单位):
太空探索技术公司
制造商所在国:
美国
使用方式:
暂无
卫星简介
星链(Starlink)计划是由太空探索技术公司(SpaceX)提出的一个巨型低轨卫星互联网星座项目,计划在2019年至2024年间在太空搭建由约1.2万颗卫星组成的“星链”网络,其中1584颗将部署在地球上空550千米处的近地轨道,并从2020年开始工作。该卫星仍在工作。
2D轨道图
3D轨道图
轨道高度分析图
轨道倾角分析图
轨道综合分析图
查看轨道综合分析图